• In France
  • List of Countries
  • For 7 days
  • Water Temperature
  • Satellite Maps
  • Weather Map
  • Weather Widgets
  • user-avatar
    Login

    Hourly Weather Okoyo

    Today, 15 November, Thursday

    Time Temperature Precipitation Wind Pressure Humidity
    00:00 +25°C° 0 mm 2 mps 723 mmHg 90%
    01:00 +24°C° 0 mm 2 mps 723 mmHg 90%
    02:00 +24°C° 0 mm 2 mps 723 mmHg 90%
    03:00 +24°C° 0 mm 2 mps 723 mmHg 91%
    04:00 +24°C° 0 mm 2 mps 723 mmHg 91%
    05:00 +24°C° 0 mm 2 mps 723 mmHg 90%
    06:00 +25°C° 0 mm 3 mps 723 mmHg 89%
    07:00 +25°C° 0 mm 3 mps 724 mmHg 86%
    08:00 +27°C° 0 mm 3 mps 724 mmHg 77%
    09:00 +29°C° 0 mm 3 mps 724 mmHg 68%
    10:00 +31°C° 0 mm 3 mps 724 mmHg 59%
    11:00 +32°C° 0.5 mm 2 mps 723 mmHg 57%
    12:00 +34°C° 0.5 mm 2 mps 723 mmHg 54%
    13:00 +33°C° 0 mm 1 mps 722 mmHg 56%
    14:00 +32°C° 1.7 mm 1 mps 721 mmHg 61%
    15:00 +31°C° 1.7 mm 1 mps 721 mmHg 66%
    16:00 +30°C° 1.7 mm 1 mps 720 mmHg 72%
    17:00 +29°C° 1.8 mm 1 mps 721 mmHg 76%
    18:00 +28°C° 1.8 mm 1 mps 721 mmHg 81%
    19:00 +26°C° 1.8 mm 1 mps 722 mmHg 85%
    20:00 +26°C° 1.6 mm 1 mps 722 mmHg 87%
    21:00 +26°C° 1.6 mm 1 mps 723 mmHg 88%
    22:00 +26°C° 1.6 mm 1 mps 723 mmHg 89%
    23:00 +25°C° 0.8 mm 2 mps 723 mmHg 90%

    Tomorrow, 16 November, Friday

    Time Temperature Precipitation Wind Pressure Humidity
    00:00 +25°C° 0.8 mm 2 mps 724 mmHg 90%
    01:00 +25°C° 0.8 mm 2 mps 724 mmHg 91%
    02:00 +25°C° 1.3 mm 2 mps 723 mmHg 92%
    03:00 +24°C° 1.3 mm 2 mps 723 mmHg 92%
    04:00 +24°C° 1.3 mm 2 mps 723 mmHg 93%
    05:00 +24°C° 0.1 mm 2 mps 723 mmHg 93%
    06:00 +25°C° 0.1 mm 2 mps 724 mmHg 92%
    07:00 +25°C° 0.1 mm 2 mps 724 mmHg 91%
    08:00 +26°C° 0.4 mm 2 mps 724 mmHg 84%
    09:00 +28°C° 0.4 mm 2 mps 725 mmHg 77%
    10:00 +30°C° 0.4 mm 2 mps 725 mmHg 70%
    11:00 +31°C° 0.8 mm 2 mps 724 mmHg 67%
    12:00 +31°C° 0.8 mm 2 mps 724 mmHg 65%
    13:00 +32°C° 0.8 mm 2 mps 723 mmHg 62%
    14:00 +31°C° 2 mm 2 mps 723 mmHg 67%
    15:00 +30°C° 2 mm 1 mps 722 mmHg 72%
    16:00 +29°C° 2 mm 1 mps 722 mmHg 77%
    17:00 +28°C° 2.2 mm 1 mps 723 mmHg 81%
    18:00 +27°C° 2.2 mm 1 mps 723 mmHg 85%
    19:00 +26°C° 2.2 mm 1 mps 724 mmHg 89%
    20:00 +24°C° 1 mm 0 mps 724 mmHg 89%
    21:00 +23°C° 1 mm 0 mps 725 mmHg 89%
    22:00 +23°C° 1 mm 0 mps 726 mmHg 90%
    23:00 +23°C° 1 mm 0 mps 725 mmHg 91%

    Day after tomorrow, 17 November, Saturday

    Time Temperature Precipitation Wind Pressure Humidity
    00:00 +23°C° 1 mm 0 mps 725 mmHg 92%
    01:00 +25°C° 1 mm 1 mps 725 mmHg 93%
    02:00 +24°C° 0.2 mm 1 mps 724 mmHg 93%
    03:00 +24°C° 0.2 mm 1 mps 724 mmHg 94%
    04:00 +24°C° 0.2 mm 1 mps 723 mmHg 94%
    05:00 +24°C° 0 mm 1 mps 724 mmHg 93%
    06:00 +25°C° 0 mm 1 mps 724 mmHg 91%
    07:00 +25°C° 0 mm 2 mps 724 mmHg 90%
    08:00 +28°C° 0 mm 1 mps 725 mmHg 80%
    09:00 +30°C° 0 mm 1 mps 725 mmHg 70%
    10:00 +32°C° 0 mm 1 mps 725 mmHg 60%
    11:00 +33°C° 0.9 mm 1 mps 724 mmHg 57%
    12:00 +33°C° 0.9 mm 1 mps 724 mmHg 55%
    13:00 +34°C° 0.9 mm 1 mps 723 mmHg 53%
    14:00 +32°C° 2 mm 1 mps 722 mmHg 61%
    15:00 +31°C° 2 mm 2 mps 722 mmHg 68%
    16:00 +29°C° 2 mm 2 mps 721 mmHg 76%
    17:00 +28°C° 0.4 mm 2 mps 722 mmHg 79%
    18:00 +27°C° 0.4 mm 1 mps 722 mmHg 83%
    19:00 +26°C° 0.4 mm 1 mps 723 mmHg 86%
    20:00 +26°C° 0.2 mm 1 mps 723 mmHg 87%
    21:00 +26°C° 0.2 mm 1 mps 724 mmHg 87%
    22:00 +25°C° 0.2 mm 1 mps 724 mmHg 88%
    23:00 +25°C° 0.1 mm 1 mps 724 mmHg 88%

    18 November, Sunday

    Time Temperature Precipitation Wind Pressure Humidity
    00:00 +25°C° 0.1 mm 1 mps 723 mmHg 89%
    01:00 +24°C° 0.1 mm 1 mps 723 mmHg 89%
    02:00 +24°C° 0.8 mm 1 mps 723 mmHg 90%
    03:00 +24°C° 0.8 mm 1 mps 722 mmHg 91%
    04:00 +24°C° 0.8 mm 1 mps 722 mmHg 92%
    05:00 +24°C° 0 mm 1 mps 723 mmHg 90%
    06:00 +25°C° 0 mm 1 mps 723 mmHg 89%
    07:00 +26°C° 0 mm 1 mps 724 mmHg 87%
    08:00 +27°C° 0.6 mm 1 mps 724 mmHg 80%
    09:00 +29°C° 0.6 mm 1 mps 724 mmHg 74%
    10:00 +31°C° 0.6 mm 1 mps 724 mmHg 67%
    11:00 +32°C° 1.1 mm 1 mps 723 mmHg 65%
    12:00 +32°C° 1.1 mm 1 mps 723 mmHg 63%
    13:00 +33°C° 1.1 mm 1 mps 722 mmHg 61%
    14:00 +32°C° 1.8 mm 1 mps 722 mmHg 67%
    15:00 +30°C° 1.8 mm 2 mps 721 mmHg 73%
    16:00 +29°C° 1.8 mm 2 mps 721 mmHg 79%
    17:00 +28°C° 1.2 mm 2 mps 721 mmHg 82%
    18:00 +27°C° 1.2 mm 1 mps 722 mmHg 86%
    19:00 +26°C° 1.2 mm 1 mps 723 mmHg 89%
    20:00 +26°C° 0 mm 1 mps 723 mmHg 89%
    21:00 +26°C° 0 mm 1 mps 723 mmHg 89%
    22:00 +25°C° 0 mm 1 mps 724 mmHg 90%
    23:00 +25°C° 0 mm 1 mps 723 mmHg 90%

    19 November, Monday

    Time Temperature Precipitation Wind Pressure Humidity
    00:00 +25°C° 0 mm 1 mps 723 mmHg 91%
    01:00 +25°C° 0 mm 1 mps 723 mmHg 91%
    02:00 +24°C° 0 mm 1 mps 722 mmHg 92%
    03:00 +24°C° 0 mm 1 mps 722 mmHg 92%
    04:00 +24°C° 0 mm 1 mps 722 mmHg 92%
    05:00 +25°C° 0 mm 1 mps 722 mmHg 91%
    06:00 +25°C° 0 mm 1 mps 723 mmHg 89%
    07:00 +26°C° 0 mm 2 mps 724 mmHg 88%
    08:00 +28°C° 0 mm 2 mps 724 mmHg 78%
    09:00 +30°C° 0 mm 2 mps 724 mmHg 68%
    10:00 +32°C° 0 mm 2 mps 724 mmHg 59%
    11:00 +33°C° 0.1 mm 1 mps 723 mmHg 54%
    12:00 +34°C° 0.1 mm 1 mps 722 mmHg 50%
    13:00 +35°C° 0.1 mm 1 mps 721 mmHg 45%
    14:00 +34°C° 0.3 mm 1 mps 721 mmHg 51%
    15:00 +33°C° 0.3 mm 1 mps 720 mmHg 56%
    16:00 +32°C° 0.3 mm 1 mps 720 mmHg 61%
    17:00 +31°C° 0.3 mm 2 mps 721 mmHg 67%
    18:00 +29°C° 0.3 mm 2 mps 721 mmHg 72%
    19:00 +28°C° 0.3 mm 2 mps 722 mmHg 78%
    20:00 +27°C° 0.1 mm 2 mps 722 mmHg 81%
    21:00 +27°C° 0.1 mm 2 mps 723 mmHg 83%
    22:00 +26°C° 0.1 mm 2 mps 723 mmHg 86%
    23:00 +26°C° 0 mm 2 mps 723 mmHg 87%

    20 November, Tuesday

    Time Temperature Precipitation Wind Pressure Humidity
    00:00 +25°C° 0 mm 2 mps 722 mmHg 88%
    01:00 +25°C° 0 mm 3 mps 722 mmHg 88%
    02:00 +25°C° 0.1 mm 2 mps 722 mmHg 90%
    03:00 +24°C° 0.1 mm 2 mps 722 mmHg 92%
    04:00 +24°C° 0.1 mm 2 mps 722 mmHg 93%
    05:00 +25°C° 0.1 mm 2 mps 723 mmHg 92%
    06:00 +25°C° 0.1 mm 2 mps 724 mmHg 91%
    07:00 +25°C° 0.1 mm 2 mps 724 mmHg 90%
    08:00 +26°C° 0.8 mm 2 mps 725 mmHg 86%
    09:00 +28°C° 0.8 mm 2 mps 725 mmHg 82%
    10:00 +29°C° 0.8 mm 2 mps 725 mmHg 78%
    11:00 +30°C° 1.6 mm 2 mps 724 mmHg 74%
    12:00 +31°C° 1.6 mm 1 mps 723 mmHg 70%
    13:00 +31°C° 1.6 mm 1 mps 722 mmHg 67%
    14:00 +32°C° 0.1 mm 1 mps 722 mmHg 64%
    15:00 +32°C° 0.1 mm 1 mps 721 mmHg 61%
    16:00 +32°C° 0.1 mm 1 mps 721 mmHg 58%
    17:00 +30°C° 0.1 mm 1 mps 722 mmHg 64%
    18:00 +29°C° 0.1 mm 1 mps 722 mmHg 70%
    19:00 +27°C° 0.1 mm 1 mps 723 mmHg 76%
    20:00 +27°C° 0.1 mm 1 mps 723 mmHg 79%
    21:00 +26°C° 0.1 mm 1 mps 723 mmHg 83%
    22:00 +26°C° 0.1 mm 2 mps 723 mmHg 86%
    23:00 +26°C° 0.1 mm 1 mps 723 mmHg 88%
    Show more